Burnet, TX

5:18 AM CDT on July 24, 2016 (GMT -0500)
Burnet Municipal-Craddock

Weather History for KBMQ - March, 2013

Change the Weather History Date:

Wednesday, March 13, 2013

  Actual Average Record
Temperature  
Mean Temperature 60 °F -  
Max Temperature 73 °F 65 °F 82 °F (2002)
Min Temperature 48 °F 46 °F 34 °F (2014)
Degree Days  
Heating Degree Days 4    
Growing Degree Days 10 (Base 50)    
Moisture  
Dew Point 33 °F    
Average Humidity 37    
Maximum Humidity 50    
Minimum Humidity 23    
Precipitation  
Precipitation 0.00 in - - ()
Sea Level Pressure  
Sea Level Pressure 30.34 in    
Wind  
Wind Speed 9 mph (East)    
Max Wind Speed 15 mph    
Max Gust Speed 17 mph    
Visibility 10 miles    
Events      
Averages and records for this station are not official NWS values.
T = Trace of Precipitation, MM = Missing Value Source: NWS Daily Summary

Daily Weather History Graph

Daily Weather History Graph

Search for Another Location

Airport or City:

Trip Planner

Search our weather history database for the weather conditions in past years. The results will help you decide how hot, cold, wet, or windy it might be!

Date:

Astronomy

Mar. 13, 2013 Rise Set
Actual Time 7:44 AM CDT 7:40 PM CDT
Civil Twilight 7:20 AM CDT 8:04 PM CDT
Nautical Twilight 6:53 AM CDT 8:32 PM CDT
Astronomical Twilight 6:24 AM CDT 9:00 PM CDT
Moon 8:35 AM CDT (3/13) 9:45 PM CDT (3/13)
Length of Visible Light 12h 43m
Length of Day
11h 55m
Waxing Crescent, 4% of the Moon is Illuminated
Mar 13
Waxing Crescent
Mar 19
First Quarter
Mar 27
Full
Apr 2
Last Quarter
Apr 10
New

Hourly Weather History & Observations

Time (CDT) Temp. Dew Point Humidity Pressure Visibility Wind Dir Wind Speed Gust Speed Precip Events Conditions
12:53 AM 55.0 °F 33.1 °F 43% 30.28 in 10.0 mi NE 11.5 mph - N/A   Clear
1:53 AM 53.1 °F 32.0 °F 45% 30.29 in 10.0 mi NE 11.5 mph - N/A   Clear
2:53 AM 51.1 °F 32.0 °F 48% 30.30 in 10.0 mi ENE 9.2 mph - N/A   Clear
3:53 AM 51.1 °F 30.9 °F 46% 30.30 in 10.0 mi NE 9.2 mph - N/A   Clear
4:53 AM 48.9 °F 30.9 °F 50% 30.31 in 10.0 mi NE 8.1 mph - N/A   Clear
5:53 AM 48.9 °F 30.0 °F 48% 30.32 in 10.0 mi ENE 8.1 mph - N/A   Clear
6:53 AM 48.9 °F 30.0 °F 48% 30.35 in 10.0 mi NE 9.2 mph - N/A   Clear
7:53 AM 48.0 °F 28.9 °F 48% 30.38 in 10.0 mi NE 9.2 mph - N/A   Clear
8:53 AM 50.0 °F 30.0 °F 46% 30.41 in 10.0 mi ENE 11.5 mph - N/A   Clear
9:53 AM 55.9 °F 32.0 °F 40% 30.42 in 10.0 mi East 15.0 mph - N/A   Clear
10:53 AM 60.1 °F 33.1 °F 36% 30.44 in 10.0 mi East 10.4 mph 17.3 mph N/A   Clear
11:53 AM 63.0 °F 33.1 °F 33% 30.43 in 9.0 mi East 9.2 mph - N/A   Clear
12:53 PM 66.0 °F 33.1 °F 29% 30.40 in 10.0 mi ESE 8.1 mph 16.1 mph N/A   Clear
1:53 PM 69.1 °F 33.1 °F 26% 30.38 in 10.0 mi South 12.7 mph 16.1 mph N/A   Clear
2:53 PM 70.0 °F 34.0 °F 27% 30.35 in 10.0 mi South 8.1 mph - N/A   Clear
3:53 PM 73.0 °F 34.0 °F 24% 30.32 in 10.0 mi SSE 8.1 mph - N/A   Clear
4:53 PM 73.0 °F 33.1 °F 23% 30.30 in 10.0 mi South 8.1 mph - N/A   Clear
5:53 PM 73.0 °F 33.1 °F 23% 30.29 in 10.0 mi Variable 4.6 mph - N/A   Clear
6:53 PM 72.0 °F 34.0 °F 25% 30.29 in 10.0 mi SE 4.6 mph - N/A   Clear
7:53 PM 66.9 °F 35.1 °F 31% 30.29 in 10.0 mi SE 5.8 mph - N/A   Clear
8:53 PM 63.0 °F 35.1 °F 35% 30.30 in 10.0 mi SE 4.6 mph - N/A   Clear
9:53 PM 62.1 °F 35.1 °F 37% 30.31 in 10.0 mi Calm Calm - N/A   Clear
10:53 PM 57.9 °F 36.0 °F 44% 30.32 in 10.0 mi Calm Calm - N/A   Clear
11:53 PM 57.9 °F 36.0 °F 44% 30.32 in 10.0 mi SE 5.8 mph - N/A   Clear